GW3294 Weather Reports


Display with metric or nautical units.
time (UTC)temp
F
wind
direction
speed
MPH
gust
MPH
rain 1hr
in
rain 24hr
in
rain mn
in
humidity
%
barometer
mb
20260905105827 74 142 0.0 2.0 0.00 0.00 0.00 97 1015.9
20260905105327 74 119 0.0 1.0 0.00 0.00 0.00 97 1016.0
20260905104821 74 150 0.0 1.0 0.00 0.00 0.00 97 1015.7
20260905104318 74 129 0.0 2.0 0.00 0.00 0.00 97 1015.9
20260905103817 74 147 0.0 1.0 0.00 0.00 0.00 97 1015.9
20260905103313 74 135 0.0 2.0 0.00 0.00 0.00 97 1015.9
20260905102809 74 117 0.0 0.0 0.00 0.00 0.00 96 1016.0
20260905102306 74 129 0.0 0.0 0.00 0.00 0.00 96 1015.9
20260905101805 74 135 0.0 1.0 0.00 0.00 0.00 96 1015.9
20260905101304 74 62 0.0 1.0 0.00 0.00 0.00 96 1016.0
20260905100757 74 124 0.0 1.0 0.00 0.00 0.00 96 1016.1
20260905100253 74 135 0.0 2.0 0.00 0.00 0.00 96 1016.0
20260905095752 75 127 0.0 1.0 0.00 0.00 0.00 96 1016.0
20260905095247 75 113 0.0 1.0 0.00 0.00 0.00 96 1016.0
20260905094742 75 129 0.0 1.0 0.00 0.00 0.00 96 1015.9
20260905094237 75 173 0.0 0.0 0.00 0.00 0.00 96 1016.0
20260905093737 75 154 0.0 1.0 0.00 0.00 0.00 96 1015.9
20260905093233 75 117 0.0 1.0 0.00 0.00 0.00 96 1016.1
20260905092727 75 112 0.0 1.0 0.00 0.00 0.00 96 1016.0
20260905092222 75 136 0.0 1.0 0.00 0.00 0.00 96 1015.9
20260905091717 75 62 0.0 0.0 0.00 0.00 0.00 96 1015.9
20260905091212 75 117 0.0 1.0 0.00 0.00 0.00 96 1015.9
20260905090711 75 129 0.0 2.0 0.00 0.00 0.00 96 1015.8
20260905090207 75 115 0.0 1.0 0.00 0.00 0.00 95 1016.0
20260905085705 75 129 0.0 0.0 0.00 0.00 0.00 95 1015.9
20260905085200 75 138 0.0 1.0 0.00 0.00 0.00 95 1015.9
20260905084654 75 117 0.0 1.0 0.00 0.00 0.00 95 1015.8
20260905084149 76 117 0.0 1.0 0.00 0.00 0.00 95 1016.0
20260905083649 76 120 1.0 1.0 0.00 0.00 0.00 95 1016.0
20260905083146 76 117 0.0 1.0 0.00 0.00 0.00 94 1016.0
20260905082642 76 89 0.0 1.0 0.00 0.00 0.00 94 1016.2
20260905082137 76 101 0.0 1.0 0.00 0.00 0.00 94 1016.2
20260905081631 76 104 0.0 1.0 0.00 0.00 0.00 94 1016.3
20260905081126 76 135 0.0 1.0 0.00 0.00 0.00 94 1016.4
20260905080621 76 129 0.0 1.0 0.00 0.00 0.00 94 1016.3
20260905080120 76 142 0.0 0.0 0.00 0.00 0.00 94 1016.4
20260905075620 76 117 0.0 1.0 0.00 0.00 0.00 94 1016.4
20260905075114 76 117 0.0 1.0 0.00 0.00 0.00 94 1016.3
20260905074613 76 122 1.0 1.0 0.00 0.00 0.00 94 1016.2
20260905074109 76 142 0.0 1.0 0.00 0.00 0.00 93 1016.2
20260905073605 76 117 0.0 1.0 0.00 0.00 0.00 92 1016.3
20260905073100 76 154 0.0 1.0 0.00 0.00 0.00 93 1016.2
20260905072559 76 124 0.0 1.0 0.00 0.00 0.00 93 1016.3
20260905072055 77 126 0.0 1.0 0.00 0.00 0.00 93 1016.4
20260905071551 77 89 0.0 1.0 0.00 0.00 0.00 92 1016.3
20260905071046 77 129 0.0 1.0 0.00 0.00 0.00 92 1016.5
20260905070541 77 129 0.0 1.0 0.00 0.00 0.00 92 1016.5
20260905070038 77 147 0.0 1.0 0.00 0.00 0.00 92 1016.5
20260905065535 76 113 0.0 1.0 0.00 0.00 0.00 92 1016.4
20260905065030 77 129 0.0 1.0 0.00 0.00 0.00 92 1016.5
20260905064530 77 124 0.0 0.0 0.00 0.00 0.00 92 1016.5
20260905064026 77 117 0.0 1.0 0.00 0.00 0.00 92 1016.5
20260905063524 77 115 0.0 1.0 0.00 0.00 0.00 92 1016.4
20260905063021 77 125 0.0 1.0 0.00 0.00 0.00 92 1016.4
20260905062521 77 124 0.0 2.0 0.00 0.00 0.00 92 1016.4
20260905062021 77 149 1.0 2.0 0.00 0.00 0.00 92 1016.4
20260905061516 77 104 0.0 1.0 0.00 0.00 0.00 91 1016.7
20260905061015 77 129 0.0 1.0 0.00 0.00 0.00 91 1016.5
20260905060511 77 129 0.0 1.0 0.00 0.00 0.00 91 1016.6
20260905060007 77 147 0.0 1.0 0.00 0.00 0.00 91 1016.4
20260905055505 77 117 0.0 0.0 0.00 0.00 0.00 91 1016.6
20260905055000 77 124 0.0 1.0 0.00 0.00 0.00 91 1016.5
20260905054456 77 135 0.0 0.0 0.00 0.00 0.00 90 1016.6
20260905053951 77 129 0.0 1.0 0.00 0.00 0.00 90 1016.6
20260905053446 77 135 0.0 1.0 0.00 0.00 0.00 90 1016.7
20260905052942 77 154 0.0 1.0 0.00 0.00 0.00 91 1016.5
20260905052441 78 129 0.0 1.0 0.00 0.00 0.00 90 1016.7
20260905051941 77 117 0.0 1.0 0.00 0.00 0.00 90 1016.7
20260905051436 78 135 0.0 1.0 0.00 0.00 0.00 90 1016.6
20260905050933 78 116 0.0 2.0 0.00 0.00 0.00 89 1016.6
20260905050423 78 150 0.0 1.0 0.00 0.00 0.00 89 1016.4
20260905045918 78 142 0.0 1.0 0.00 0.00 0.00 89 1016.4
20260905045408 78 113 0.0 1.0 0.00 0.00 0.00 89 1016.4
20260905044903 78 141 0.0 2.0 0.00 0.00 0.00 88 1016.4
20260905044358 78 129 0.0 0.0 0.00 0.00 0.00 86 1016.5
20260905043857 78 205 0.0 1.0 0.00 0.00 0.00 87 1016.5
20260905043352 79 154 0.0 1.0 0.00 0.00 0.00 87 1016.4
20260905042846 79 157 0.0 0.0 0.00 0.00 0.00 86 1016.5
20260905042340 78 154 0.0 0.0 0.00 0.00 0.00 85 1016.5
20260905041835 79 139 0.0 1.0 0.00 0.00 0.00 86 1016.4
20260905041331 78 154 0.0 0.0 0.00 0.00 0.00 86 1016.5
20260905040826 79 129 0.0 1.0 0.00 0.00 0.00 86 1016.3
20260905040324 79 147 0.0 1.0 0.00 0.00 0.00 83 1016.5
20260905035819 79 50 0.0 1.0 0.00 0.00 0.00 85 1016.3
20260905035315 79 180 0.0 1.0 0.00 0.00 0.00 85 1016.6
20260905034811 79 147 0.0 2.0 0.00 0.00 0.00 86 1016.4
20260905034306 79 124 0.0 1.0 0.00 0.00 0.00 85 1016.4
20260905033804 80 157 0.0 1.0 0.00 0.00 0.00 85 1016.6
20260905033255 80 117 0.0 1.0 0.00 0.00 0.00 82 1016.6
20260905032754 80 322 0.0 0.0 0.00 0.00 0.00 81 1016.8
20260905032249 80 279 1.0 1.0 0.00 0.00 0.00 84 1016.6
20260905031744 80 118 0.0 1.0 0.00 0.00 0.00 82 1016.6
20260905031240 80 147 0.0 0.0 0.00 0.00 0.00 82 1016.3
20260905030735 80 147 0.0 1.0 0.00 0.00 0.00 83 1016.5
20260905030230 80 135 0.0 0.0 0.00 0.00 0.00 82 1016.5
20260905025725 80 326 0.0 2.0 0.00 0.00 0.00 83 1016.5
20260905025220 81 120 0.0 1.0 0.00 0.00 0.00 82 1016.6
20260905024716 81 132 0.0 2.0 0.00 0.00 0.00 82 1016.5
20260905024212 81 124 0.0 2.0 0.00 0.00 0.00 82 1016.4
20260905023707 81 73 0.0 1.0 0.00 0.00 0.00 82 1016.3
20260905023206 81 129 0.0 1.0 0.00 0.00 0.00 82 1016.3
20260905022705 81 142 0.0 1.0 0.00 0.00 0.00 81 1016.3
20260905022200 81 104 0.0 1.0 0.00 0.00 0.00 80 1016.1
20260905021655 82 154 0.0 1.0 0.00 0.00 0.00 81 1016.2
20260905021150 82 142 0.0 1.0 0.00 0.00 0.00 80 1016.2
20260905020645 83 145 1.0 1.0 0.00 0.00 0.00 79 1016.0
20260905020140 82 25 0.0 1.0 0.00 0.00 0.00 75 1016.0
20260905015639 83 130 0.0 2.0 0.00 0.00 0.00 78 1015.9
20260905015133 84 146 0.0 1.0 0.00 0.00 0.00 74 1015.9
20260905014627 84 249 0.0 0.0 0.00 0.00 0.00 73 1015.9
20260905014123 83 117 0.0 0.0 0.00 0.00 0.00 76 1015.7
20260905013619 84 116 0.0 1.0 0.00 0.00 0.00 75 1015.9
20260905013114 85 135 0.0 0.0 0.00 0.00 0.00 70 1015.8
20260905012609 84 154 0.0 0.0 0.00 0.00 0.00 74 1015.6
20260905012106 85 129 0.0 0.0 0.00 0.00 0.00 73 1015.7
20260905011601 86 142 0.0 1.0 0.00 0.00 0.00 71 1015.5
20260905011056 87 124 0.0 0.0 0.00 0.00 0.00 70 1015.6
20260905010550 86 124 0.0 0.0 0.00 0.00 0.00 68 1015.4
20260905010047 87 124 0.0 0.0 0.00 0.00 0.00 68 1015.5
20260905005542 87 124 0.0 1.0 0.00 0.00 0.00 66 1015.5
20260905005038 88 195 0.0 1.0 0.00 0.00 0.00 67 1015.4
20260905004532 88 193 0.0 1.0 0.00 0.00 0.00 66 1015.1
20260905004027 88 147 0.0 1.0 0.00 0.00 0.00 66 1015.5
20260905003523 89 242 0.0 0.0 0.00 0.00 0.00 66 1015.5
20260905003019 90 237 0.0 1.0 0.00 0.00 0.00 62 1015.5
20260905002513 89 113 0.0 0.0 0.00 0.00 0.00 64 1015.2
20260905002008 90 113 0.0 1.0 0.00 0.00 0.00 63 1015.2
20260905001503 91 129 0.0 1.0 0.00 0.00 0.00 62 1015.2
20260905000957 93 113 0.0 1.0 0.00 0.00 0.00 58 1015.5
20260905000454 93 205 0.0 0.0 0.00 0.00 0.00 58 1015.2
20260904235948 94 212 0.0 1.0 0.00 0.00 0.00 56 1015.2
20260904235443 94 269 0.0 1.0 0.00 0.00 0.00 56 1015.1
20260904234938 95 205 0.0 0.0 0.00 0.00 0.00 55 1015.1
20260904234437 95 103 0.0 1.0 0.00 0.00 0.00 55 1015.4
20260904233934 95 246 0.0 1.0 0.00 0.00 0.00 54 1015.1
20260904233429 96 256 0.0 1.0 0.00 0.00 0.00 54 1015.0
20260904232925 97 265 0.0 2.0 0.00 0.00 0.00 51 1015.2
20260904232421 97 302 0.0 2.0 0.00 0.00 0.00 50 1015.0
20260904231918 97 322 0.0 1.0 0.00 0.00 0.00 49 1015.1
20260904231413 98 309 0.0 1.0 0.00 0.00 0.00 48 1015.1
20260904230908 99 288 1.0 2.0 0.00 0.00 0.00 48 1014.9
20260904230406 99 279 1.0 2.0 0.00 0.00 0.00 47 1015.0
20260904225901 99 235 0.0 2.0 0.00 0.00 0.00 45 1014.9
20260904225359 100 265 2.0 3.0 0.00 0.00 0.00 46 1015.0
20260904224859 102 209 0.0 1.0 0.00 0.00 0.00 41 1015.2
20260904224355 102 199 2.0 3.0 0.00 0.00 0.00 43 1015.0
20260904223849 104 207 1.0 2.0 0.00 0.00 0.00 41 1015.0
20260904223348 102 221 2.0 3.0 0.00 0.00 0.00 43 1015.1
20260904222844 105 317 2.0 2.0 0.00 0.00 0.00 39 1015.1
20260904222339 105 278 1.0 2.0 0.00 0.00 0.00 41 1015.4
20260904221838 104 259 0.0 3.0 0.00 0.00 0.00 39 1015.1
20260904221334 105 262 1.0 3.0 0.00 0.00 0.00 39 1015.2
20260904220829 105 269 3.0 4.0 0.00 0.00 0.00 38 1015.1
20260904220328 104 262 2.0 3.0 0.00 0.00 0.00 40 1015.2
20260904215823 104 264 2.0 6.0 0.00 0.00 0.00 39 1015.1
20260904215319 107 236 3.0 3.0 0.00 0.00 0.00 38 1015.5
20260904214815 108 231 0.0 3.0 0.00 0.00 0.00 39 1015.5
20260904214310 106 181 0.0 3.0 0.00 0.00 0.00 38 1015.6
20260904213808 107 238 1.0 3.0 0.00 0.00 0.00 38 1015.7
20260904213304 106 215 1.0 2.0 0.00 0.00 0.00 38 1015.5
20260904212759 105 98 0.0 3.0 0.00 0.00 0.00 38 1015.8
20260904212254 104 249 0.0 4.0 0.00 0.00 0.00 39 1015.7
20260904211749 105 232 4.0 4.0 0.00 0.00 0.00 37 1015.8
20260904211244 106 271 2.0 3.0 0.00 0.00 0.00 37 1015.7
20260904210739 105 315 0.0 3.0 0.00 0.00 0.00 38 1015.9
20260904210233 103 273 2.0 5.0 0.00 0.00 0.00 39 1016.1
20260904205730 105 315 2.0 5.0 0.00 0.00 0.00 38 1016.1
20260904205225 105 129 0.0 3.0 0.00 0.00 0.00 39 1016.3
20260904204722 105 233 1.0 3.0 0.00 0.00 0.00 41 1016.3
20260904204217 106 252 2.0 3.0 0.00 0.00 0.00 41 1016.1
20260904203713 103 149 0.0 2.0 0.00 0.00 0.00 41 1016.3
20260904203210 101 288 2.0 4.0 0.00 0.00 0.00 40 1016.7
20260904202705 100 332 1.0 7.0 0.00 0.00 0.00 41 1016.5
20260904202155 105 239 2.0 4.0 0.00 0.00 0.00 37 1016.6
20260904201650 102 137 2.0 5.0 0.00 0.00 0.00 40 1016.4
20260904201145 102 204 1.0 7.0 0.00 0.00 0.00 37 1016.6
20260904200644 102 115 4.0 7.0 0.00 0.00 0.00 38 1016.6
20260904200139 103 234 1.0 5.0 0.00 0.00 0.00 38 1016.9
20260904195638 104 255 2.0 5.0 0.00 0.00 0.00 39 1016.9
20260904195137 101 253 2.0 3.0 0.00 0.00 0.00 42 1016.8
20260904194632 101 241 2.0 6.0 0.00 0.00 0.00 42 1017.0
20260904194126 102 141 2.0 3.0 0.00 0.00 0.00 42 1017.1
20260904193621 102 267 2.0 4.0 0.00 0.00 0.00 42 1017.3
20260904193118 102 253 2.0 3.0 0.00 0.00 0.00 46 1017.5
20260904192617 99 124 0.0 2.0 0.00 0.00 0.00 46 1017.4
20260904192113 99 274 3.0 4.0 0.00 0.00 0.00 48 1017.3
20260904191604 100 325 1.0 3.0 0.00 0.00 0.00 48 1017.4
20260904191100 102 222 2.0 2.0 0.00 0.00 0.00 44 1017.3
20260904190555 99 38 0.0 3.0 0.00 0.00 0.00 51 1017.5
20260904190052 99 174 2.0 3.0 0.00 0.00 0.00 48 1017.7
20260904185548 100 78 0.0 4.0 0.00 0.00 0.00 48 1017.5
20260904185042 99 103 0.0 3.0 0.00 0.00 0.00 46 1017.8
20260904184536 98 135 0.0 1.0 0.00 0.00 0.00 49 1017.5
20260904184032 98 281 2.0 2.0 0.00 0.00 0.00 51 1017.7
20260904183527 99 268 1.0 3.0 0.00 0.00 0.00 49 1017.6
20260904183022 101 180 2.0 3.0 0.00 0.00 0.00 44 1017.6
20260904182517 99 244 0.0 3.0 0.00 0.00 0.00 50 1017.6
20260904182017 99 267 2.0 5.0 0.00 0.00 0.00 45 1017.7
20260904181513 101 253 2.0 2.0 0.00 0.00 0.00 46 1018.1
20260904181007 98 144 1.0 3.0 0.00 0.00 0.00 49 1017.7
20260904180507 101 277 4.0 6.0 0.00 0.00 0.00 45 1018.0
20260904180003 101 220 0.0 3.0 0.00 0.00 0.00 47 1018.0
20260904175502 102 272 2.0 3.0 0.00 0.00 0.00 44 1018.0
20260904174956 99 241 3.0 5.0 0.00 0.00 0.00 47 1018.1
20260904174451 100 197 3.0 4.0 0.00 0.00 0.00 46 1018.1
20260904173948 99 92 2.0 7.0 0.00 0.00 0.00 49 1018.1
20260904173447 102 256 3.0 5.0 0.00 0.00 0.00 45 1018.4
20260904172943 101 221 1.0 3.0 0.00 0.00 0.00 46 1018.4
20260904172438 100 214 1.0 6.0 0.00 0.00 0.00 49 1018.2
20260904171932 100 168 3.0 9.0 0.00 0.00 0.00 46 1018.4
20260904171428 102 269 4.0 5.0 0.00 0.00 0.00 43 1018.4
20260904170924 100 290 2.0 5.0 0.00 0.00 0.00 46 1018.5
20260904170419 99 269 2.0 5.0 0.00 0.00 0.00 49 1018.6
20260904165914 99 270 2.0 6.0 0.00 0.00 0.00 49 1018.5
20260904165413 100 265 4.0 5.0 0.00 0.00 0.00 46 1018.6
20260904164912 100 95 1.0 4.0 0.00 0.00 0.00 48 1018.6
20260904164407 98 62 0.0 5.0 0.00 0.00 0.00 49 1018.7
20260904163903 98 327 2.0 4.0 0.00 0.00 0.00 50 1018.6
20260904163402 98 286 0.0 5.0 0.00 0.00 0.00 51 1018.6
20260904162902 98 180 0.0 5.0 0.00 0.00 0.00 50 1018.5
20260904162357 97 149 2.0 5.0 0.00 0.00 0.00 52 1018.5
20260904161852 98 128 0.0 4.0 0.00 0.00 0.00 53 1018.5
20260904161347 97 224 1.0 4.0 0.00 0.00 0.00 54 1018.6
20260904160843 97 184 3.0 5.0 0.00 0.00 0.00 53 1018.5
20260904160338 95 158 2.0 6.0 0.00 0.00 0.00 55 1018.7
20260904155833 95 213 3.0 4.0 0.00 0.00 0.00 59 1018.8
20260904155327 95 185 2.0 4.0 0.00 0.00 0.00 59 1018.7
20260904154826 94 236 0.0 4.0 0.00 0.00 0.00 58 1018.5
20260904154321 95 175 2.0 5.0 0.00 0.00 0.00 56 1018.5
20260904153817 93 245 4.0 5.0 0.00 0.00 0.00 59 1018.6
20260904153307 93 254 0.0 5.0 0.00 0.00 0.00 59 1018.6
20260904152803 93 254 4.0 7.0 0.00 0.00 0.00 59 1018.7
20260904152258 92 148 3.0 4.0 0.00 0.00 0.00 60 1018.4
20260904151753 92 175 2.0 5.0 0.00 0.00 0.00 61 1018.5
20260904151251 91 309 4.0 5.0 0.00 0.00 0.00 62 1018.7
20260904150748 91 262 3.0 5.0 0.00 0.00 0.00 63 1018.6
20260904150243 90 217 1.0 6.0 0.00 0.00 0.00 63 1018.4
20260904145741 89 278 2.0 5.0 0.00 0.00 0.00 64 1018.5
20260904145237 90 289 2.0 5.0 0.00 0.00 0.00 65 1018.5
20260904144732 89 344 0.0 8.0 0.00 0.00 0.00 64 1018.4
20260904144228 89 206 2.0 6.0 0.00 0.00 0.00 66 1018.4
20260904143723 88 0 0.0 8.0 0.00 0.00 0.00 67 1018.4
20260904143220 88 301 1.0 4.0 0.00 0.00 0.00 67 1018.3
20260904142716 88 170 3.0 7.0 0.00 0.00 0.00 67 1018.3
20260904142211 88 309 0.0 4.0 0.00 0.00 0.00 68 1018.3
20260904141710 87 243 0.0 6.0 0.00 0.00 0.00 70 1018.3
20260904141206 86 176 2.0 6.0 0.00 0.00 0.00 72 1018.3
20260904140701 85 257 3.0 6.0 0.00 0.00 0.00 72 1018.3
20260904140156 84 205 1.0 5.0 0.00 0.00 0.00 74 1018.3
20260904135655 84 180 0.0 2.0 0.00 0.00 0.00 75 1018.4
20260904135151 83 304 0.0 2.0 0.00 0.00 0.00 77 1018.4
20260904134647 83 265 0.0 3.0 0.00 0.00 0.00 77 1018.4
20260904134146 82 284 0.0 1.0 0.00 0.00 0.00 77 1018.3
20260904133641 82 291 1.0 3.0 0.00 0.00 0.00 78 1018.4
20260904133137 81 202 0.0 2.0 0.00 0.00 0.00 80 1018.4
20260904132631 80 244 1.0 2.0 0.00 0.00 0.00 82 1018.3
20260904132126 80 310 1.0 1.0 0.00 0.00 0.00 82 1018.4
20260904131626 79 191 0.0 2.0 0.00 0.00 0.00 83 1018.5
20260904131122 78 157 0.0 2.0 0.00 0.00 0.00 87 1018.3
20260904130621 77 149 0.0 3.0 0.00 0.00 0.00 88 1018.4
20260904130116 76 37 0.0 1.0 0.00 0.00 0.00 91 1018.4
20260904125613 76 124 0.0 2.0 0.00 0.00 0.00 92 1018.5
20260904125112 75 104 0.0 2.0 0.00 0.00 0.00 92 1018.5
20260904124608 75 173 0.0 2.0 0.00 0.00 0.00 92 1018.3
20260904124103 75 109 0.0 2.0 0.00 0.00 0.00 93 1018.3
20260904123603 75 129 0.0 1.0 0.00 0.00 0.00 93 1018.2
20260904123100 74 116 0.0 1.0 0.00 0.00 0.00 94 1017.9
20260904122600 74 141 0.0 1.0 0.00 0.00 0.00 94 1018.1
20260904122055 74 154 0.0 1.0 0.00 0.00 0.00 93 1018.1
20260904121550 74 119 0.0 0.0 0.00 0.00 0.00 93 1018.2
20260904121046 74 142 0.0 2.0 0.00 0.00 0.00 93 1018.0
20260904120542 74 124 0.0 1.0 0.00 0.00 0.00 93 1018.1
20260904120037 74 89 0.0 1.0 0.00 0.00 0.00 92 1017.9
20260904115532 73 89 0.0 1.0 0.00 0.00 0.00 93 1017.9
20260904115027 74 117 0.0 1.0 0.00 0.00 0.00 93 1017.9
20260904114522 74 124 0.0 2.0 0.00 0.00 0.00 94 1017.8
20260904114021 74 135 0.0 1.0 0.00 0.00 0.00 94 1018.0
20260904113516 74 122 1.0 2.0 0.00 0.00 0.00 94 1017.8
20260904113016 74 89 0.0 2.0 0.00 0.00 0.00 94 1017.7
20260904112511 74 135 0.0 2.0 0.00 0.00 0.00 94 1017.8
20260904112007 74 89 0.0 2.0 0.00 0.00 0.00 93 1017.6
20260904111503 74 119 0.0 2.0 0.00 0.00 0.00 93 1017.5
20260904110958 74 147 0.0 1.0 0.00 0.00 0.00 93 1017.4
20260904110457 74 309 0.0 1.0 0.00 0.00 0.00 92 1017.4